| time (UTC) | temp F | wind direction | speed knots | gust knots | rain 1hr in | rain 24hr in | rain mn in | humidity % | barometer mb |
| 20260504001602 | 80 | 266 | 0.9 | 4.3 | 0.00 | 0.00 | 0.00 | 35 | 1009.8 |
| 20260504000057 | 79 | 298 | 0.9 | 8.7 | 0.00 | 0.00 | 0.00 | 37 | 1009.9 |
| 20260503234555 | 79 | 263 | 1.7 | 5.2 | 0.00 | 0.00 | 0.00 | 37 | 1009.9 |
| 20260503233103 | 79 | 272 | 2.6 | 6.1 | 0.00 | 0.00 | 0.00 | 32 | 1010.0 |
| 20260503231555 | 79 | 280 | 3.5 | 7.8 | 0.00 | 0.00 | 0.00 | 37 | 1010.2 |
| 20260503230058 | 79 | 294 | 1.7 | 7.0 | 0.00 | 0.00 | 0.00 | 37 | 1010.4 |
| 20260503224555 | 78 | 246 | 2.6 | 7.0 | 0.00 | 0.00 | 0.00 | 41 | 1010.6 |
| 20260503223055 | 78 | 290 | 3.5 | 7.8 | 0.00 | 0.00 | 0.00 | 40 | 1010.8 |
| 20260503221600 | 79 | 266 | 0.9 | 7.0 | 0.00 | 0.00 | 0.00 | 41 | 1010.9 |
| 20260503220104 | 79 | 251 | 1.7 | 5.2 | 0.00 | 0.00 | 0.00 | 36 | 1011.1 |
| 20260503214558 | 78 | 267 | 0.9 | 7.8 | 0.00 | 0.00 | 0.00 | 42 | 1011.1 |
| 20260503213055 | 78 | 272 | 1.7 | 7.0 | 0.00 | 0.00 | 0.00 | 43 | 1011.4 |
| 20260503211555 | 77 | 270 | 2.6 | 6.1 | 0.00 | 0.00 | 0.00 | 37 | 1011.4 |
| 20260503210058 | 78 | 261 | 0.9 | 3.5 | 0.00 | 0.00 | 0.00 | 40 | 1011.6 |
| 20260503204606 | 78 | 231 | 1.7 | 5.2 | 0.00 | 0.00 | 0.00 | 41 | 1011.8 |
| 20260503203107 | 76 | 0 | 1.7 | 9.6 | 0.00 | 0.00 | 0.00 | 44 | 1012.1 |
| 20260503201558 | 76 | 323 | 0.9 | 7.8 | 0.00 | 0.00 | 0.00 | 44 | 1012.1 |
| 20260503200057 | 76 | 244 | 1.7 | 4.3 | 0.00 | 0.00 | 0.00 | 44 | 1012.3 |
| 20260503194614 | 75 | 166 | 1.7 | 6.1 | 0.00 | 0.00 | 0.00 | 46 | 1012.4 |
| 20260503193100 | 75 | 270 | 1.7 | 6.1 | 0.00 | 0.00 | 0.00 | 47 | 1012.6 |
| 20260503191603 | 75 | 349 | 2.6 | 5.2 | 0.00 | 0.00 | 0.00 | 45 | 1012.7 |
| 20260503190101 | 74 | 262 | 1.7 | 7.8 | 0.00 | 0.00 | 0.00 | 44 | 1012.8 |
| 20260503184556 | 73 | 262 | 2.6 | 7.8 | 0.00 | 0.00 | 0.00 | 49 | 1013.0 |
| 20260503183104 | 72 | 328 | 1.7 | 7.8 | 0.00 | 0.00 | 0.00 | 50 | 1013.2 |
| 20260503181555 | 71 | 278 | 1.7 | 8.7 | 0.00 | 0.00 | 0.00 | 53 | 1013.1 |
| 20260503180107 | 70 | 278 | 2.6 | 6.1 | 0.00 | 0.00 | 0.00 | 49 | 1013.2 |
| 20260503173145 | 69 | 264 | 0.9 | 5.2 | 0.00 | 0.00 | 0.00 | 57 | 1013.4 |
| 20260503171555 | 68 | 289 | 1.7 | 5.2 | 0.00 | 0.00 | 0.00 | 52 | 1013.5 |
| 20260503130107 | 52 | 0 | 0.0 | 0.0 | 0.00 | 0.00 | 0.00 | 77 | 1013.2 |
| 20260503100109 | 54 | 0 | 0.0 | 0.9 | 0.00 | 0.00 | 0.00 | 73 | 1013.8 |
| 20260503081558 | 54 | 0 | 0.0 | 0.0 | 0.00 | 0.00 | 0.00 | 71 | 1014.0 |
| 20260503071554 | 56 | 0 | 0.0 | 0.0 | 0.00 | 0.00 | 0.00 | 67 | 1014.0 |
| 20260503054556 | 60 | 0 | 0.0 | 0.9 | 0.00 | 0.00 | 0.00 | 64 | 1013.5 |
| 20260503053053 | 60 | 242 | 0.0 | 0.9 | 0.00 | 0.00 | 0.00 | 59 | 1013.5 |
| 20260503051555 | 61 | 0 | 0.0 | 0.9 | 0.00 | 0.00 | 0.00 | 64 | 1013.4 |
| 20260503050055 | 61 | 237 | 0.0 | 0.9 | 0.00 | 0.00 | 0.00 | 55 | 1013.4 |
| 20260503044557 | 62 | 0 | 0.0 | 0.9 | 0.00 | 0.00 | 0.00 | 56 | 1013.3 |
| 20260503043100 | 63 | 0 | 0.0 | 0.9 | 0.00 | 0.00 | 0.00 | 56 | 1013.1 |
| 20260503041554 | 65 | 0 | 0.0 | 1.7 | 0.00 | 0.00 | 0.00 | 51 | 1013.1 |
| 20260503040057 | 66 | 0 | 0.9 | 5.2 | 0.00 | 0.00 | 0.00 | 49 | 1012.7 |
| 20260503034555 | 67 | 264 | 0.9 | 3.5 | 0.00 | 0.00 | 0.00 | 45 | 1012.4 |
| 20260503033055 | 66 | 255 | 0.9 | 2.6 | 0.00 | 0.00 | 0.00 | 49 | 1012.3 |
| 20260503031607 | 68 | 12 | 0.9 | 5.2 | 0.00 | 0.00 | 0.00 | 50 | 1012.2 |
| 20260503030100 | 69 | 254 | 0.9 | 4.3 | 0.00 | 0.00 | 0.00 | 48 | 1012.1 |
| 20260503024559 | 71 | 60 | 0.9 | 4.3 | 0.00 | 0.00 | 0.00 | 40 | 1012.1 |
| 20260503023058 | 72 | 289 | 0.0 | 3.5 | 0.00 | 0.00 | 0.00 | 42 | 1012.1 |
| 20260503021605 | 73 | 273 | 0.9 | 4.3 | 0.00 | 0.00 | 0.00 | 43 | 1012.2 |
| 20260503020101 | 73 | 251 | 0.9 | 4.3 | 0.00 | 0.00 | 0.00 | 39 | 1012.2 |
| 20260503014559 | 74 | 195 | 1.7 | 7.0 | 0.00 | 0.00 | 0.00 | 42 | 1012.2 |
| 20260503013053 | 75 | 274 | 1.7 | 5.2 | 0.00 | 0.00 | 0.00 | 41 | 1012.2 |
| 20260503011605 | 75 | 292 | 1.7 | 5.2 | 0.00 | 0.00 | 0.00 | 37 | 1012.3 |
| 20260503010054 | 75 | 270 | 2.6 | 6.1 | 0.00 | 0.00 | 0.00 | 42 | 1012.2 |
| 20260503004553 | 76 | 269 | 1.7 | 5.2 | 0.00 | 0.00 | 0.00 | 37 | 1012.3 |
| 20260503003052 | 75 | 244 | 2.6 | 7.0 | 0.00 | 0.00 | 0.00 | 43 | 1012.4 |